TimeCST,TemperatureF,Dew PointF,Humidity,Sea Level PressureIn,VisibilityMPH,Wind Direction,Wind SpeedMPH,Gust SpeedMPH,PrecipitationIn,Events,Conditions,WindDirDegrees,DateUTC
12:15 AM,-14.6,-20.4,75,30.44,10.0,West,4.6,-,N/A,,Clear,270,2014-02-11 06:15:00
12:35 AM,-11.4,-16.8,77,30.44,10.0,West,4.6,-,N/A,,Clear,280,2014-02-11 06:35:00
12:55 AM,-2.7,-6.7,83,30.43,10.0,WNW,3.5,-,N/A,,Clear,300,2014-02-11 06:55:00
1:15 AM,0.3,-4.0,82,30.43,10.0,NW,4.6,-,N/A,,Clear,310,2014-02-11 07:15:00
1:35 AM,-1.8,-6.3,81,30.42,10.0,NW,4.6,-,N/A,,Clear,320,2014-02-11 07:35:00
1:55 AM,-7.8,-13.0,78,30.41,10.0,NW,5.8,-,N/A,,Clear,320,2014-02-11 07:55:00
2:15 AM,-6.3,-10.8,81,30.41,10.0,NW,4.6,-,N/A,,Clear,320,2014-02-11 08:15:00
2:35 AM,-6.2,-11.0,79,30.41,10.0,NW,5.8,-,N/A,,Clear,320,2014-02-11 08:35:00
2:55 AM,-5.1,-9.6,81,30.41,10.0,NW,5.8,-,N/A,,Clear,320,2014-02-11 08:55:00
3:15 AM,-3.3,-7.6,82,30.41,10.0,NW,3.5,-,N/A,,Clear,310,2014-02-11 09:15:00
3:35 AM,-5.6,-10.8,78,30.41,10.0,NW,3.5,-,N/A,,Clear,310,2014-02-11 09:35:00
3:55 AM,-6.5,-11.2,80,30.42,10.0,NW,4.6,-,N/A,,Clear,310,2014-02-11 09:55:00
4:15 AM,-6.3,-11.4,79,30.42,10.0,Calm,Calm,-,N/A,,Clear,0,2014-02-11 10:15:00
4:35 AM,-6.9,-11.6,80,30.43,10.0,NW,4.6,-,N/A,,Clear,310,2014-02-11 10:35:00
4:55 AM,-8.3,-13.5,78,30.44,10.0,Calm,Calm,-,N/A,,Clear,0,2014-02-11 10:55:00
5:15 AM,-8.9,-14.3,77,30.44,10.0,West,4.6,-,N/A,,Clear,280,2014-02-11 11:15:00
5:35 AM,-11.4,-16.4,78,30.44,10.0,West,3.5,-,N/A,,Clear,270,2014-02-11 11:35:00
5:55 AM,-14.4,-20.0,76,30.44,10.0,West,3.5,-,N/A,,Clear,270,2014-02-11 11:55:00
6:15 AM,-14.1,-19.7,76,30.45,10.0,Calm,Calm,-,N/A,,Clear,0,2014-02-11 12:15:00
6:35 AM,-15.9,-21.6,75,30.46,10.0,Calm,Calm,-,N/A,,Clear,0,2014-02-11 12:35:00
6:55 AM,-19.5,-26.3,71,30.47,10.0,Calm,Calm,-,N/A,,Clear,0,2014-02-11 12:55:00
7:15 AM,-15.7,-21.5,75,30.48,10.0,Calm,Calm,-,N/A,,Clear,0,2014-02-11 13:15:00
7:35 AM,-13.7,-19.3,76,30.48,10.0,Calm,Calm,-,N/A,,Clear,0,2014-02-11 13:35:00
7:55 AM,-13.7,-19.5,75,30.49,10.0,Calm,Calm,-,N/A,,Clear,0,2014-02-11 13:55:00
8:15 AM,-11.2,-16.6,77,30.49,10.0,Calm,Calm,-,N/A,,Scattered Clouds,0,2014-02-11 14:15:00
8:35 AM,-10.3,-15.5,78,30.50,10.0,Calm,Calm,-,N/A,,Scattered Clouds,0,2014-02-11 14:35:00
8:55 AM,-7.2,-12.3,79,30.50,10.0,Calm,Calm,-,N/A,,Scattered Clouds,0,2014-02-11 14:55:00
9:15 AM,-3.8,-8.3,81,30.50,10.0,Calm,Calm,-,N/A,,Mostly Cloudy,0,2014-02-11 15:15:00
9:35 AM,-0.4,-4.5,83,30.51,7.0,Calm,Calm,-,N/A,,Scattered Clouds,0,2014-02-11 15:35:00
9:55 AM,3.4,-0.6,84,30.50,7.0,NW,3.5,-,N/A,,Scattered Clouds,310,2014-02-11 15:55:00
10:15 AM,6.6,3.2,86,30.50,10.0,West,3.5,-,N/A,,Clear,260,2014-02-11 16:15:00
10:35 AM,8.4,5.2,87,30.51,10.0,Calm,Calm,-,N/A,,Clear,0,2014-02-11 16:35:00
10:55 AM,7.9,4.3,85,30.50,10.0,SSE,3.5,-,N/A,,Clear,150,2014-02-11 16:55:00
11:15 AM,7.0,2.8,83,30.50,10.0,Calm,Calm,-,N/A,,Clear,0,2014-02-11 17:15:00
11:35 AM,10.4,1.2,66,30.50,10.0,SW,3.5,-,N/A,,Clear,220,2014-02-11 17:35:00
11:55 AM,11.3,0.7,62,30.50,10.0,WSW,3.5,-,N/A,,Clear,240,2014-02-11 17:55:00
12:15 PM,12.0,1.2,62,30.49,10.0,SSW,4.6,-,N/A,,Clear,210,2014-02-11 18:15:00
12:35 PM,12.2,1.0,61,30.48,10.0,SSW,3.5,-,N/A,,Clear,210,2014-02-11 18:35:00
12:55 PM,12.2,1.0,61,30.48,10.0,SSW,4.6,-,N/A,,Clear,200,2014-02-11 18:55:00
1:15 PM,12.0,0.3,59,30.47,10.0,SSW,5.8,-,N/A,,Clear,200,2014-02-11 19:15:00
1:35 PM,11.8,0.1,59,30.47,10.0,SW,5.8,-,N/A,,Clear,220,2014-02-11 19:35:00
1:55 PM,11.5,-0.4,59,30.46,10.0,SW,5.8,-,N/A,,Clear,220,2014-02-11 19:55:00
2:15 PM,11.3,-0.4,59,30.46,10.0,SW,6.9,-,N/A,,Clear,230,2014-02-11 20:15:00
2:35 PM,11.1,-0.6,59,30.46,10.0,SSW,3.5,-,N/A,,Clear,210,2014-02-11 20:35:00
2:55 PM,10.9,-0.8,59,30.46,10.0,SSW,3.5,-,N/A,,Clear,210,2014-02-11 20:55:00
3:15 PM,10.8,-1.3,58,30.46,10.0,South,4.6,-,N/A,,Clear,190,2014-02-11 21:15:00
3:35 PM,10.4,-1.5,59,30.45,10.0,SSW,4.6,-,N/A,,Clear,200,2014-02-11 21:35:00
3:55 PM,9.7,-1.8,60,30.44,10.0,SSW,3.5,-,N/A,,Clear,200,2014-02-11 21:55:00
4:15 PM,9.1,-2.2,60,30.44,10.0,South,4.6,-,N/A,,Clear,190,2014-02-11 22:15:00
4:35 PM,9.1,-2.6,59,30.44,10.0,SSW,3.5,-,N/A,,Clear,210,2014-02-11 22:35:00
4:55 PM,4.1,-4.9,66,30.44,10.0,Calm,Calm,-,N/A,,Clear,0,2014-02-11 22:55:00
5:15 PM,1.2,-6.3,71,30.44,10.0,Calm,Calm,-,N/A,,Clear,0,2014-02-11 23:15:00
5:35 PM,4.1,-4.0,69,30.44,10.0,Calm,Calm,-,N/A,,Clear,0,2014-02-11 23:35:00
5:55 PM,-2.4,-9.2,73,30.44,10.0,Calm,Calm,-,N/A,,Clear,0,2014-02-11 23:55:00
6:15 PM,-2.7,-8.9,75,30.44,10.0,Calm,Calm,-,N/A,,Clear,0,2014-02-12 00:15:00
6:35 PM,-4.0,-8.5,81,30.42,10.0,Calm,Calm,-,N/A,,Clear,0,2014-02-12 00:35:00
6:55 PM,-4.0,-9.0,79,30.42,10.0,Calm,Calm,-,N/A,,Clear,0,2014-02-12 00:55:00
7:15 PM,-3.6,-7.2,85,30.42,10.0,Calm,Calm,-,N/A,,Clear,0,2014-02-12 01:15:00
7:35 PM,-4.5,-8.9,82,30.41,10.0,Calm,Calm,-,N/A,,Clear,0,2014-02-12 01:35:00
7:55 PM,-6.0,-10.5,81,30.42,10.0,Calm,Calm,-,N/A,,Clear,0,2014-02-12 01:55:00
8:15 PM,-8.7,-13.7,79,30.41,10.0,Calm,Calm,-,N/A,,Clear,0,2014-02-12 02:15:00
8:35 PM,-7.2,-11.9,80,30.41,5.0,Calm,Calm,-,N/A,,Haze,0,2014-02-12 02:35:00
8:55 PM,-6.0,-10.3,82,30.41,7.0,Calm,Calm,-,N/A,,Clear,0,2014-02-12 02:55:00
9:15 PM,-5.8,-10.3,81,30.41,10.0,Calm,Calm,-,N/A,,Clear,0,2014-02-12 03:15:00
9:35 PM,-2.4,-6.5,82,30.41,10.0,Calm,Calm,-,N/A,,Clear,0,2014-02-12 03:35:00
9:55 PM,-7.8,-12.5,80,30.41,2.5,Calm,Calm,-,N/A,,Haze,0,2014-02-12 03:55:00
10:15 PM,-8.0,-13.2,78,30.41,2.0,South,3.5,-,N/A,,Haze,170,2014-02-12 04:15:00
10:35 PM,-7.4,-12.3,79,30.41,7.0,Calm,Calm,-,N/A,,Clear,0,2014-02-12 04:35:00
10:55 PM,-6.9,-12.1,78,30.41,7.0,SSE,3.5,-,N/A,,Clear,160,2014-02-12 04:55:00
11:15 PM,-5.4,-10.1,80,30.40,7.0,SSE,4.6,-,N/A,,Clear,160,2014-02-12 05:15:00
11:35 PM,-1.3,-5.6,82,30.39,10.0,SSE,4.6,-,N/A,,Clear,150,2014-02-12 05:35:00
11:55 PM,-3.5,-8.0,81,30.39,7.0,SSE,3.5,-,N/A,,Clear,160,2014-02-12 05:55:00